"Pseudo-MPEC" for ZTF10El

Created 2026 Jul 17 1:35:07 UT using Find_Orb

Click here for an explanation of pseudo-MPECs

 
 Astrometry: 
     ZTF10El*0C2026 07 11.31368620 02 20.422-01 58 25.34   ~7CF5 16.35RUNEOCPI41
     ZTF10El 0C2026 07 11.31403420 02 29.837-01 58 31.60   ~7CF5 16.35RUNEOCPI41
     ZTF10El 0C2026 07 11.33770520 13 06.492-02 05 53.87   ~7CF5 15.88RUNEOCPI41
     ZTF10El 0C2026 07 11.33805320 13 15.656-02 06 00.40   ~7CF5 15.88RUNEOCPI41

Station data:
(I41) Palomar Mountain--ZTF  (N33.357336 W116.859780)  US/California.
   Observers B. T. Bolin, Z. T. F. Collaboration. Measurers B. T. Bolin,
   Z.-Y. Lin, F. J. Masci. 1.2-m f/2.4 Schmidt.

Orbital elements:  ZTF10El
   Perigee 2026 Jul 11.529670 +/- 37 TT = 12:42:43.4 (JD 2461233.029670)
Epoch 2026 Jul 11.0 TT = JDT 2461232.5                           AutoNEOCP
q134108.4832 +/- 1.18e+7            (J2000 equator)
H   28.95 G 0.15                    Peri.  292.841228 +/- 54
                                    Node    72.197436 +/- 70
e  75.21580693 +/- 0.259            Incl.    1.732803 +/- 3.3
From 4 observations 2026 July 11 (35.1 min); mean residual 5".40
Residuals in arcseconds: 
260711 I41  6.8-  .11+    260711 I41  8.4+  .23-    
260711 I41  6.8+  .12-    260711 I41  8.4-  .24+    

Ephemerides (geocentric):
Date (UTC) HH   RA             Dec           delta  r     elong  mag " sig PA
---- --------  ------------   ------------  ------ ------ -----  --- --------
2026 07 17 02  06 19 06.387   +00 44 19.44  .04776 .97495  29.2 30??  50d  91
2026 07 17 03  06 19 08.571   +00 44 24.42  .04811 .97464  29.2 30??  50d  91
2026 07 17 04  06 19 10.729   +00 44 29.42  .04847 .97434  29.2 30??  50d  91
2026 07 17 05  06 19 12.860   +00 44 34.45  .04883 .97404  29.3 30??  51d  91
2026 07 17 06  06 19 14.966   +00 44 39.50  .04919 .97373  29.3 30??  52d  91
2026 07 17 07  06 19 17.047   +00 44 44.58  .04955 .97343  29.3 30??  53d  91
2026 07 17 08  06 19 19.104   +00 44 49.68  .04991 .97313  29.3 30??  55d  91
2026 07 17 09  06 19 21.138   +00 44 54.80  .05027 .97282  29.3 30??  56d  91
2026 07 17 10  06 19 23.148   +00 44 59.95  .05063 .97252  29.3 30??  56d  91
2026 07 17 11  06 19 25.135   +00 45 05.13  .05099 .97222  29.4 30??  57d  91
2026 07 17 12  06 19 27.101   +00 45 10.33  .05135 .97191  29.4 30??  58d  91
2026 07 17 13  06 19 29.045   +00 45 15.55  .05171 .97161  29.4 30??  58d  91
2026 07 17 14  06 19 30.968   +00 45 20.80  .05207 .97131  29.4 30??  53d  91
2026 07 17 15  06 19 32.870   +00 45 26.08  .05243 .97101  29.4 30??  52d  91
2026 07 17 16  06 19 34.753   +00 45 31.38  .05279 .97070  29.5 30??  52d  91
2026 07 17 17  06 19 36.616   +00 45 36.71  .05315 .97040  29.5 30??  52d  91
2026 07 17 18  06 19 38.459   +00 45 42.07  .05351 .97010  29.5 30??  52d  91
2026 07 17 19  06 19 40.284   +00 45 47.45  .05386 .96980  29.5 30??  51d  91
2026 07 17 20  06 19 42.091   +00 45 52.86  .05422 .96950  29.5 30??  51d  91
2026 07 17 21  06 19 43.879   +00 45 58.30  .05458 .96919  29.6 30??  51d  91
2026 07 17 22  06 19 45.651   +00 46 03.76  .05494 .96889  29.6 30??  51d  91
2026 07 17 23  06 19 47.405   +00 46 09.26  .05530 .96859  29.6 30??  51d  91
2026 07 18 00  06 19 49.142   +00 46 14.78  .05566 .96829  29.6 30??  51d  91
2026 07 18 01  06 19 50.863   +00 46 20.32  .05602 .96799  29.6 30??  50d  91
2026 07 18 02  06 19 52.569   +00 46 25.90  .05638 .96769  29.6 30??  50d  91
2026 07 18 03  06 19 54.258   +00 46 31.50  .05674 .96739  29.7 30??  50d  91
2026 07 18 04  06 19 55.932   +00 46 37.13  .05710 .96709  29.7 30??  50d  91
2026 07 18 05  06 19 57.592   +00 46 42.79  .05746 .96679  29.7 30??  50d  91
2026 07 18 06  06 19 59.236   +00 46 48.48  .05782 .96649  29.7 30??  50d  91
2026 07 18 07  06 20 00.867   +00 46 54.20  .05818 .96619  29.7 30??  50d  91
2026 07 18 08  06 20 02.484   +00 46 59.94  .05854 .96589  29.8 30??  50d  91
2026 07 18 09  06 20 04.086   +00 47 05.72  .05890 .96559  29.8 30??  50d  91
2026 07 18 10  06 20 05.676   +00 47 11.52  .05926 .96529  29.8 30??  50d  91
2026 07 18 11  06 20 07.252   +00 47 17.35  .05962 .96499  29.8 30??  50d  91
2026 07 18 12  06 20 08.816   +00 47 23.21  .05998 .96469  29.8 30??  51d  91
2026 07 18 13  06 20 10.367   +00 47 29.10  .06034 .96439  29.9 30??  52d  91
2026 07 18 14  06 20 11.906   +00 47 35.02  .06070 .96410  29.9 30??  54d  91
2026 07 18 15  06 20 13.433   +00 47 40.97  .06106 .96380  29.9 30??  55d  91
2026 07 18 16  06 20 14.949   +00 47 46.95  .06143 .96350  29.9 30??  56d  91
2026 07 18 17  06 20 16.453   +00 47 52.96  .06179 .96320  29.9 30??  56d  91
2026 07 18 18  06 20 17.945   +00 47 59.00  .06215 .96290  30.0 30??  57d  91
2026 07 18 19  06 20 19.427   +00 48 05.07  .06251 .96260  30.0 30??  58d  91
2026 07 18 20  06 20 20.898   +00 48 11.17  .06287 .96231  30.0 30??  58d  91
2026 07 18 21  06 20 22.359   +00 48 17.30  .06323 .96201  30.0 31??  52d  91
2026 07 18 22  06 20 23.810   +00 48 23.46  .06359 .96171  30.0 31??  52d  91
2026 07 18 23  06 20 25.250   +00 48 29.65  .06395 .96141  30.1 31??  52d  91
2026 07 19 00  06 20 26.681   +00 48 35.87  .06431 .96112  30.1 31??  52d  91
2026 07 19 01  06 20 28.102   +00 48 42.12  .06467 .96082  30.1 31??  51d  91